Regional Weather Roundup
Issued by NWS Sterling, VA

Home | Current Version | Previous Version | Text Only | Print | Product List | Glossary On
Versions: 1 2 3 4 5 6 7 8 9 10 11 12 13 14 15 16 17 18 19 20 21 22 23 24 25 26 27 28 29 30 31 32 33 34 35 36 37 38 39 40 41 42 43 44 45 46 47 48 49 50
000
ASUS41 KLWX 041410
RWRLWX

REGIONAL WEATHER ROUNDUP
NATIONAL WEATHER SERVICE BALTIMORE MD/WASHINGTON DC
1000 AM EDT TUE AUG 04 2015

Note: "FAIR" indicates few or no clouds below 12,000 feet
with no significant weather and/or obstructions to visibility.
 TC=TEMPERATURE CELSIUS

 * =Non NWS site. Station does not report precipitation (e.g. rain,
    snow, etc.), thunder, or fog.

DCZ001-MDZ009-015-VAZ040>042-051-053>054-041500-
WASHINGTON METRO

CITY           SKY/WX    TMP DP  RH WIND       PRES   REMARKS
WASHINGTON NAT MOSUNNY   85  68  56 SW5       29.94R
DULLES         MOSUNNY   79  65  62 S5        29.95R
ANDREWS AFB    SUNNY     85  66  53 W8        29.93S
FT BELVOIR     SUNNY     83  68  60 VRB1      29.93S
QUANTICO       MOSUNNY   85  69  58 W5        29.91R
COLLEGE PARK*  SUNNY     82  63  51 W7        29.93R
LEESBURG*      SUNNY     82  72  69 SW7       29.96R
MANASSAS*      SUNNY     82  70  65 CALM      29.94S
GAITHERSBURG*  SUNNY     77  66  69 W6        29.98R

$$

MDZ006>007-011-014-041500-
BALTIMORE METRO

CITY           SKY/WX    TMP DP  RH WIND       PRES   REMARKS
BWI AIRPORT    MOSUNNY   79  67  66 W7        29.92S
MD SCIENCE CTR   N/A     81  67  62 MISG      29.92S
MARTIN STATE   SUNNY     79  72  78 SW6       29.93S
ANNAPOLIS      SUNNY     81  62  52 SW6       29.92R
FORT MEADE*    SUNNY     79  64  61 SW6       29.95S

$$

MDZ012-015-019>023-041500-
MARYLAND EASTERN SHORE

CITY           SKY/WX    TMP DP  RH WIND       PRES   REMARKS
OCEAN CITY     SUNNY     87  73  62 SW16      29.92F HX  94
SALISBURY      SUNNY     83  73  72 SW12      29.93S
BAY BRIDGE AP*   N/A     81  61  50 SW8       29.92S
CAMBRIDGE*     SUNNY     82  70  65 SW8       29.92S
EASTON*        SUNNY     81  72  74 SW13      29.95S

$$

MDZ017>025-041500-
SOUTHERN MARYLAND

CITY           SKY/WX    TMP DP  RH WIND       PRES   REMARKS
PATUXENT RIVER MOSUNNY   83  71  67 W12       29.93S
ST INIGOES     SUNNY     82  72  71 W10       29.93S
LEONARDTOWN*   SUNNY     81  70  69 SW10      29.95F

$$

MDZ003>005-041500-
NORTH CENTRAL MARYLAND

CITY           SKY/WX    TMP DP  RH WIND       PRES   REMARKS
FREDERICK*     SUNNY     81  70  69 W10       29.96
HAGERSTOWN APT MOSUNNY   78  66  66 W8        29.95R
WESTMINSTER*   SUNNY     75  68  78 W10       29.95R

$$

MDZ501>502-041500-
WESTERN MARYLAND

CITY           SKY/WX    TMP DP  RH WIND       PRES   REMARKS
OAKLAND*       PTSUNNY   66  64  94 W5        30.06S
CUMBERLAND*    SUNNY     77  68  73 SE3       30.00S

$$

VAZ025>031-041500-
SHENANDOAH VALLEY

CITY           SKY/WX    TMP DP  RH WIND       PRES   REMARKS
WINCHESTER*    SUNNY     82  68  61 SW5       29.96R
FRONT ROYAL*   FAIR      81  64  57 SW3       29.95R
LURAY*         FAIR      86  63  45 SW5       29.97S
NEW MARKET*    FAIR      81  65  59 SW5       29.96S
STAUNTON*      SUNNY     84  57  39 SW10      30.02R
WAYNESBORO*    FAIR      79  59  50 SW5       30.02R

$$

WVZ021-048>050-054>055-041500-
EASTERN WEST VIRGINIA PANHANDLE

CITY           SKY/WX    TMP DP  RH WIND       PRES   REMARKS
MARTINSBURG    SUNNY     79  68  69 W10       29.95R
PETERSBURG*    PTSUNNY   75  69  81 CALM      29.98F

$$

VAZ036>039-050-041500-
CENTRAL FOOTHILLS

CITY           SKY/WX    TMP DP  RH WIND       PRES   REMARKS
CHARLOTTESVILL SUNNY     83  65  54 S6        29.97R
CULPEPER*      SUNNY     80  69  69 SW3       29.96S
ORANGE*        SUNNY     82  68  61 S3        29.97R
GORDONSVILLE*  FAIR      81  68  65 S5        29.96R
WARRENTON*     FAIR      82  72  71 SW5       29.94S

$$

VAZ055>057-041500-
NORTH AND CENTRAL PIEDMONT

CITY           SKY/WX    TMP DP  RH WIND       PRES   REMARKS
FREDERICKSBRG* SUNNY     84  71  63 SW3       29.94S
STAFFORD*      SUNNY     81  67  63 W3        29.99R

$$

NCZ024-NYZ072-PAZ021-071-VAZ022-071-041500-
OTHER REGIONAL OBSERVATIONS

CITY           SKY/WX    TMP DP  RH WIND       PRES   REMARKS
NEW YORK CITY  SUNNY     77  67  71 MISG      29.88R
PHILADELPHIA   MOSUNNY   82  65  56 SW14      29.90R
PITTSBURGH     MOSUNNY   70  57  63 W7        29.99R
ROANOKE        MOSUNNY   81  63  54 SW5       30.03R
RICHMOND       MOSUNNY   84  71  65 SW12      29.97R
RALEIGH        MOSUNNY   83  73  72 SW7       30.02S

$$

ANZ530>537-041500-
MARINE OBSERVATIONS

STATION/POSITION TIME  TEMP    WIND        PRES
                       AIR SEA DIR/SP/G
                 (UTC) (F)     (DEG/KT/KT) (MB)
THOMAS PT LIGHT  NOT AVBL
BALT KEY BRIDGE  1300   73     220/  9/  9 1012.8R
COVE POINT       1300   78     240/  8/ 11 1014.1R
LEWISETTA        1300   80 83  280/  9/ 13 1013.4R
SOLOMONS ISLAND  1300      83                N/A
PINEY POINT      1300          280/  5/  6   N/A

$$




USA.gov is the U.S. government's official web portal to all federal, state and local government web resources and services.